Погода в Понтеведре

Испания     42°26′01″N   8°38′23″W
темп.,
°C
ветер,
м/с
пор.,
м/с
влажн.,
%
обл.,
%
осадки,
мм/ч
давл.,
гПа
погр.,
м
10 мая, пн
пн1023:00+10зюз37916 1.7 1009293
02:00+9юз369185 3.5 1009267
05:00+9ююз269098 1.3 1008273
08:00+9ююв2594100 3.3 1008254
11:00+12юз468890 2.4 10091028
14:00+11зюз3588100 4.8 1009700
17:00+11зсз368656 2.6 1011970
20:00+11зсз478015 3.9 1012833
11 мая, вт
вт1123:00+7зсз149029 0.9 1015183
02:00+7з259090 2.6 1017243
05:00+7з268986 2.1 1017276
08:00+8зюз259198 3.7 1018222
11:00+11зюз478577 1.6 1020954
14:00+14юз585799 2.4 10201667
17:00+14ююз5969100 0.5 10191366
20:00+11ююз61089100 1.6 1018994
12 мая, ср
ср1223:00+11ю51396100 4.4 10171117
02:00+13ююз8139399 8.3 10151056
05:00+12юз7139010 1.2 10141012
08:00+11зсз7129365 2.8 1016964
11:00+12зсз588533 1.1 10191098
14:00+14з466659 1.4 10201280
17:00+15з465797 0.1 10201504
20:00+13зсз346649 0.3 10211108
13 мая, чт
чт1323:00+10юз128582 0.1 1022128
02:00+10ююз2387100 0.1 1021148
05:00+10ю3687100 0.1 1018439
08:00+9ююв31097100 3.9 1015519
11:00+11ююз61599100 23.8 10121086
14:00+14з3795100 30.8 1011608
17:00+15з589023 1.1 1012824
20:00+13зсз489438 3.3 1013677
14 мая, пт
пт1423:00+9с259518 0.4 1016190
02:00+8св229596 0.4 101859
05:00+7ссв229524 0.0 101965
08:00+9св129296 0.0 102080
11:00+14с235689 0.0 10211244
14:00+17з44495 0.0 10211592
17:00+16зсз44578 0.0 10211042
20:00+14зсз236488 0.0 1021440